Time,TemperatureF,DewpointF,PressureIn,WindDirection,WindDirectionDegrees,WindSpeedMPH,WindSpeedGustMPH,Humidity,HourlyPrecipIn,Conditions,Clouds,dailyrainin,SoftwareType,DateUTC
2013-01-22 00:02:00,-14.0,-17.0,-100.00,West,280,6.0,9.0,86,0.00,,,0.00,,2013-01-22 06:02:00,
2013-01-22 00:12:00,-14.0,-17.0,-100.00,West,280,6.0,7.0,86,0.00,,,0.00,,2013-01-22 06:12:00,
2013-01-22 00:22:00,-13.0,-17.0,-100.00,WNW,295,7.0,9.0,86,0.00,,,0.00,,2013-01-22 06:22:00,
2013-01-22 00:32:00,-14.0,-17.0,-100.00,WNW,285,7.0,7.0,86,0.00,,,0.00,,2013-01-22 06:32:00,
2013-01-22 00:42:00,-14.0,-17.0,-100.00,West,280,7.0,7.0,86,0.00,,,0.00,,2013-01-22 06:42:00,
2013-01-22 00:52:00,-14.0,-17.0,-100.00,WNW,285,7.0,9.0,86,0.00,,,0.00,,2013-01-22 06:52:00,
2013-01-22 01:02:00,-14.0,-17.0,-100.00,West,280,9.0,9.0,86,0.00,,,0.00,,2013-01-22 07:02:00,
2013-01-22 01:12:00,-14.0,-17.0,-100.00,WNW,285,9.0,9.0,86,0.00,,,0.00,,2013-01-22 07:12:00,
2013-01-22 01:22:00,-14.0,-17.0,-100.00,WNW,285,8.0,9.0,86,0.00,,,0.00,,2013-01-22 07:22:00,
2013-01-22 01:32:00,-14.0,-17.0,-100.00,WNW,285,8.0,9.0,86,0.00,,,0.00,,2013-01-22 07:32:00,
2013-01-22 01:42:00,-14.0,-17.0,-100.00,WNW,290,8.0,11.0,86,0.00,,,0.00,,2013-01-22 07:42:00,
2013-01-22 01:52:00,-15.0,-18.0,-100.00,West,280,6.0,7.0,86,0.00,,,0.00,,2013-01-22 07:52:00,
2013-01-22 02:02:00,-15.0,-18.0,-100.00,WNW,285,7.0,7.0,86,0.00,,,0.00,,2013-01-22 08:02:00,
2013-01-22 02:12:00,-15.0,-18.0,-100.00,West,275,6.0,7.0,86,0.00,,,0.00,,2013-01-22 08:12:00,
2013-01-22 02:22:00,-15.0,-18.0,-100.00,WNW,285,6.0,7.0,86,0.00,,,0.00,,2013-01-22 08:22:00,
2013-01-22 02:32:00,-14.0,-17.0,-100.00,WNW,290,6.0,6.0,86,0.00,,,0.00,,2013-01-22 08:32:00,
2013-01-22 02:42:00,-14.0,-17.0,-100.00,WNW,295,6.0,7.0,86,0.00,,,0.00,,2013-01-22 08:42:00,
2013-01-22 02:52:00,-15.0,-18.0,-100.00,NW,305,6.0,7.0,86,0.00,,,0.00,,2013-01-22 08:52:00,
2013-01-22 03:02:00,-16.0,-18.0,-100.00,NW,310,4.0,6.0,86,0.00,,,0.00,,2013-01-22 09:02:00,
2013-01-22 03:12:00,-16.0,-18.0,-100.00,NW,315,6.0,6.0,86,0.00,,,0.00,,2013-01-22 09:12:00,
2013-01-22 03:22:00,-17.0,-20.0,-100.00,NW,305,4.0,6.0,86,0.00,,,0.00,,2013-01-22 09:22:00,
2013-01-22 03:32:00,-17.0,-20.0,-100.00,NW,320,4.0,6.0,86,0.00,,,0.00,,2013-01-22 09:32:00,
2013-01-22 03:42:00,-17.0,-20.0,-100.00,NW,310,4.0,6.0,86,0.00,,,0.00,,2013-01-22 09:42:00,
2013-01-22 03:52:00,-18.0,-22.0,-100.00,WNW,285,4.0,6.0,86,0.00,,,0.00,,2013-01-22 09:52:00,
2013-01-22 04:02:00,-18.0,-20.0,-100.00,West,275,5.0,6.0,86,0.00,,,0.00,,2013-01-22 10:02:00,
2013-01-22 04:12:00,-17.0,-20.0,-100.00,West,270,5.0,6.0,86,0.00,,,0.00,,2013-01-22 10:12:00,
2013-01-22 04:22:00,-18.0,-20.0,-100.00,WSW,250,6.0,6.0,86,0.00,,,0.00,,2013-01-22 10:22:00,
2013-01-22 04:32:00,-17.0,-20.0,-100.00,WSW,250,5.0,6.0,86,0.00,,,0.00,,2013-01-22 10:32:00,
2013-01-22 04:42:00,-17.0,-20.0,-100.00,WSW,250,4.0,6.0,86,0.00,,,0.00,,2013-01-22 10:42:00,
2013-01-22 04:52:00,-18.0,-20.0,-100.00,WSW,255,4.0,5.0,86,0.00,,,0.00,,2013-01-22 10:52:00,
2013-01-22 05:02:00,-17.0,-20.0,-100.00,WSW,255,4.0,6.0,86,0.00,,,0.00,,2013-01-22 11:02:00,
2013-01-22 05:12:00,-18.0,-20.0,-100.00,WSW,250,3.0,4.0,86,0.00,,,0.00,,2013-01-22 11:12:00,
2013-01-22 05:22:00,-19.0,-22.0,-100.00,WSW,245,4.0,4.0,86,0.00,,,0.00,,2013-01-22 11:22:00,
2013-01-22 05:33:00,-18.0,-20.0,-100.00,WNW,290,4.0,4.0,86,0.00,,,0.00,,2013-01-22 11:33:00,
2013-01-22 05:42:00,-18.0,-20.0,-100.00,WNW,300,4.0,5.0,86,0.00,,,0.00,,2013-01-22 11:42:00,
2013-01-22 05:53:00,-18.0,-20.0,-100.00,WNW,295,6.0,6.0,86,0.00,,,0.00,,2013-01-22 11:53:00,
2013-01-22 06:03:00,-17.0,-20.0,-100.00,WNW,295,6.0,6.0,86,0.00,,,0.00,,2013-01-22 12:03:00,
2013-01-22 06:12:00,-18.0,-20.0,-100.00,WNW,295,6.0,7.0,86,0.00,,,0.00,,2013-01-22 12:12:00,
2013-01-22 06:23:00,-17.0,-20.0,-100.00,WNW,285,4.0,6.0,86,0.00,,,0.00,,2013-01-22 12:23:00,
2013-01-22 06:33:00,-17.0,-20.0,-100.00,WNW,300,4.0,5.0,86,0.00,,,0.00,,2013-01-22 12:33:00,
2013-01-22 06:43:00,-17.0,-20.0,-100.00,NW,305,3.0,4.0,86,0.00,,,0.00,,2013-01-22 12:43:00,
2013-01-22 06:52:00,-17.0,-20.0,-100.00,NW,320,2.0,3.0,86,0.00,,,0.00,,2013-01-22 12:52:00,
2013-01-22 07:03:00,-17.0,-20.0,-100.00,NNW,335,1.0,2.0,86,0.00,,,0.00,,2013-01-22 13:03:00,
2013-01-22 07:13:00,-19.0,-22.0,-100.00,NNW,345,2.0,3.0,86,0.00,,,0.00,,2013-01-22 13:13:00,
2013-01-22 07:23:00,-19.0,-22.0,-100.00,WSW,255,2.0,3.0,86,0.00,,,0.00,,2013-01-22 13:23:00,
2013-01-22 07:33:00,-19.0,-22.0,-100.00,West,280,2.0,4.0,86,0.00,,,0.00,,2013-01-22 13:33:00,
2013-01-22 07:43:00,-19.0,-22.0,-100.00,West,265,3.0,3.0,86,0.00,,,0.00,,2013-01-22 13:43:00,
2013-01-22 07:53:00,-19.0,-22.0,-100.00,WSW,255,2.0,4.0,86,0.00,,,0.00,,2013-01-22 13:53:00,
2013-01-22 08:03:00,-20.0,-24.0,-100.00,West,265,2.0,4.0,86,0.00,,,0.00,,2013-01-22 14:03:00,
2013-01-22 08:12:00,-21.0,-24.0,-100.00,WSW,250,3.0,3.0,86,0.00,,,0.00,,2013-01-22 14:12:00,
2013-01-22 08:23:00,-21.0,-24.0,-100.00,West,260,4.0,4.0,86,0.00,,,0.00,,2013-01-22 14:23:00,
2013-01-22 08:33:00,-21.0,-24.0,-100.00,West,260,4.0,4.0,86,0.00,,,0.00,,2013-01-22 14:33:00,
2013-01-22 08:43:00,-19.0,-22.0,-100.00,WSW,255,5.0,5.0,86,0.00,,,0.00,,2013-01-22 14:43:00,
2013-01-22 08:53:00,-19.0,-22.0,-100.00,WSW,250,4.0,6.0,86,0.00,,,0.00,,2013-01-22 14:53:00,
2013-01-22 09:03:00,-17.0,-20.0,-100.00,WSW,255,3.0,4.0,86,0.00,,,0.00,,2013-01-22 15:03:00,
2013-01-22 09:12:00,-16.0,-18.0,-100.00,West,270,3.0,4.0,86,0.00,,,0.00,,2013-01-22 15:12:00,
2013-01-22 09:23:00,-14.0,-17.0,-100.00,West,260,3.0,4.0,86,0.00,,,0.00,,2013-01-22 15:23:00,
2013-01-22 09:33:00,-12.0,-15.0,-100.00,West,265,4.0,4.0,87,0.00,,,0.00,,2013-01-22 15:33:00,
2013-01-22 09:43:00,-12.0,-15.0,-100.00,West,260,4.0,5.0,87,0.00,,,0.00,,2013-01-22 15:43:00,
2013-01-22 09:52:00,-11.0,-13.0,-100.00,WSW,250,4.0,4.0,87,0.00,,,0.00,,2013-01-22 15:52:00,
2013-01-22 10:03:00,-9.0,-11.0,-100.00,WSW,255,2.0,4.0,87,0.00,,,0.00,,2013-01-22 16:03:00,
2013-01-22 10:13:00,-8.0,-11.0,-100.00,WSW,255,2.0,7.0,87,0.00,,,0.00,,2013-01-22 16:13:00,
2013-01-22 10:23:00,-6.0,-9.0,-100.00,SW,215,4.0,4.0,87,0.00,,,0.00,,2013-01-22 16:23:00,
2013-01-22 10:33:00,-8.0,-11.0,-100.00,SSW,195,2.0,4.0,86,0.00,,,0.00,,2013-01-22 16:33:00,
2013-01-22 10:43:00,-7.0,-11.0,-100.00,South,180,2.0,3.0,85,0.00,,,0.00,,2013-01-22 16:43:00,
2013-01-22 10:53:00,-7.0,-11.0,-100.00,South,190,4.0,5.0,83,0.00,,,0.00,,2013-01-22 16:53:00,
2013-01-22 11:03:00,-5.0,-9.0,-100.00,SSW,195,4.0,6.0,82,0.00,,,0.00,,2013-01-22 17:03:00,
2013-01-22 11:12:00,-4.0,-9.0,-100.00,SSW,205,6.0,6.0,81,0.00,,,0.00,,2013-01-22 17:12:00,
2013-01-22 11:23:00,-3.0,-8.0,-100.00,SW,235,6.0,7.0,79,0.00,,,0.00,,2013-01-22 17:23:00,
2013-01-22 11:33:00,-4.0,-9.0,-100.00,SW,225,9.0,11.0,77,0.00,,,0.00,,2013-01-22 17:33:00,
2013-01-22 11:43:00,-5.0,-9.0,-100.00,SW,225,9.0,12.0,77,0.00,,,0.00,,2013-01-22 17:43:00,
2013-01-22 11:53:00,-5.0,-11.0,-100.00,SW,230,9.0,12.0,77,0.00,,,0.00,,2013-01-22 17:53:00,
2013-01-22 12:03:00,-5.0,-9.0,-100.00,WSW,240,7.0,10.0,77,0.00,,,0.00,,2013-01-22 18:03:00,
2013-01-22 12:12:00,-4.0,-9.0,-100.00,SW,225,6.0,9.0,77,0.00,,,0.00,,2013-01-22 18:12:00,
2013-01-22 12:23:00,-4.0,-9.0,-100.00,WSW,240,7.0,8.0,76,0.00,,,0.00,,2013-01-22 18:23:00,
2013-01-22 12:33:00,-3.0,-9.0,-100.00,WSW,250,6.0,7.0,76,0.00,,,0.00,,2013-01-22 18:33:00,
2013-01-22 12:43:00,-3.0,-9.0,-100.00,West,265,6.0,8.0,75,0.00,,,0.00,,2013-01-22 18:43:00,
2013-01-22 12:53:00,-3.0,-9.0,-100.00,WSW,245,4.0,9.0,75,0.00,,,0.00,,2013-01-22 18:53:00,
2013-01-22 13:03:00,-2.0,-8.0,-100.00,WSW,240,6.0,7.0,75,0.00,,,0.00,,2013-01-22 19:03:00,
2013-01-22 13:13:00,-3.0,-9.0,-100.00,West,260,6.0,7.0,74,0.00,,,0.00,,2013-01-22 19:13:00,
2013-01-22 13:23:00,-1.0,-8.0,-100.00,WSW,240,5.0,7.0,74,0.00,,,0.00,,2013-01-22 19:23:00,
2013-01-22 13:33:00,-2.0,-8.0,-100.00,WSW,255,4.0,10.0,73,0.00,,,0.00,,2013-01-22 19:33:00,
2013-01-22 13:43:00,-1.0,-8.0,-100.00,WSW,240,4.0,6.0,73,0.00,,,0.00,,2013-01-22 19:43:00,
2013-01-22 13:53:00,-1.0,-8.0,-100.00,West,280,4.0,6.0,72,0.00,,,0.00,,2013-01-22 19:53:00,
2013-01-22 14:03:00,-1.0,-8.0,-100.00,WSW,245,2.0,6.0,72,0.00,,,0.00,,2013-01-22 20:03:00,
2013-01-22 14:12:00,-1.0,-8.0,-100.00,WSW,250,6.0,7.0,72,0.00,,,0.00,,2013-01-22 20:12:00,
2013-01-22 14:23:00,-2.0,-9.0,-100.00,West,280,5.0,7.0,71,0.00,,,0.00,,2013-01-22 20:23:00,
2013-01-22 14:33:00,-2.0,-9.0,-100.00,West,280,4.0,7.0,72,0.00,,,0.00,,2013-01-22 20:33:00,
2013-01-22 14:42:00,-1.0,-8.0,-100.00,SW,230,6.0,6.0,72,0.00,,,0.00,,2013-01-22 20:42:00,
2013-01-22 14:53:00,-1.0,-8.0,-100.00,SW,230,6.0,7.0,72,0.00,,,0.00,,2013-01-22 20:53:00,
2013-01-22 15:03:00,-1.0,-8.0,-100.00,WSW,245,7.0,8.0,72,0.00,,,0.00,,2013-01-22 21:03:00,
2013-01-22 15:13:00,0.0,-8.0,-100.00,WSW,245,7.0,10.0,72,0.00,,,0.00,,2013-01-22 21:13:00,
2013-01-22 15:22:00,0.0,-8.0,-100.00,West,260,4.0,6.0,71,0.00,,,0.00,,2013-01-22 21:22:00,
2013-01-22 15:33:00,1.0,-6.0,-100.00,SW,235,4.0,6.0,71,0.00,,,0.00,,2013-01-22 21:33:00,
2013-01-22 15:43:00,0.0,-6.0,-100.00,SW,215,6.0,8.0,71,0.00,,,0.00,,2013-01-22 21:43:00,
2013-01-22 15:52:00,0.0,-8.0,-100.00,WSW,255,6.0,7.0,71,0.00,,,0.00,,2013-01-22 21:52:00,
2013-01-22 16:02:00,0.0,-8.0,-100.00,SW,230,6.0,7.0,71,0.00,,,0.00,,2013-01-22 22:02:00,
2013-01-22 16:12:00,0.0,-8.0,-100.00,SW,220,7.0,7.0,71,0.00,,,0.00,,2013-01-22 22:12:00,
2013-01-22 16:22:00,0.0,-8.0,-100.00,SW,235,6.0,7.0,72,0.00,,,0.00,,2013-01-22 22:22:00,
2013-01-22 16:32:00,0.0,-6.0,-100.00,SW,220,6.0,8.0,72,0.00,,,0.00,,2013-01-22 22:32:00,
2013-01-22 16:43:00,0.0,-6.0,-100.00,SW,225,6.0,7.0,73,0.00,,,0.00,,2013-01-22 22:43:00,
2013-01-22 16:53:00,0.0,-8.0,-100.00,SW,230,6.0,7.0,73,0.00,,,0.00,,2013-01-22 22:53:00,
2013-01-22 17:02:00,0.0,-6.0,-100.00,SW,230,4.0,6.0,74,0.00,,,0.00,,2013-01-22 23:02:00,
2013-01-22 17:12:00,0.0,-6.0,-100.00,SW,235,4.0,6.0,74,0.00,,,0.00,,2013-01-22 23:12:00,
2013-01-22 17:23:00,0.0,-6.0,-100.00,WSW,245,3.0,4.0,74,0.00,,,0.00,,2013-01-22 23:23:00,
2013-01-22 17:33:00,0.0,-6.0,-100.00,SW,225,4.0,5.0,75,0.00,,,0.00,,2013-01-22 23:33:00,
2013-01-22 17:43:00,0.0,-6.0,-100.00,SW,220,4.0,6.0,75,0.00,,,0.00,,2013-01-22 23:43:00,
2013-01-22 17:52:00,0.0,-6.0,-100.00,SSW,210,2.0,6.0,75,0.00,,,0.00,,2013-01-22 23:52:00,
2013-01-22 18:03:00,0.0,-6.0,-100.00,SW,215,1.0,2.0,76,0.00,,,0.00,,2013-01-23 00:03:00,
2013-01-22 18:12:00,0.0,-6.0,-100.00,SSW,210,2.0,3.0,76,0.00,,,0.00,,2013-01-23 00:12:00,
2013-01-22 18:22:00,0.0,-6.0,-100.00,South,175,1.0,2.0,76,0.00,,,0.00,,2013-01-23 00:22:00,
2013-01-22 18:33:00,0.0,-6.0,-100.00,SSW,200,5.0,6.0,76,0.00,,,0.00,,2013-01-23 00:33:00,
2013-01-22 18:42:00,0.0,-6.0,-100.00,SSW,210,7.0,7.0,76,0.00,,,0.00,,2013-01-23 00:42:00,
2013-01-22 18:52:00,0.0,-6.0,-100.00,SSW,205,9.0,9.0,77,0.00,,,0.00,,2013-01-23 00:52:00,
2013-01-22 19:03:00,0.0,-6.0,-100.00,SSW,210,7.0,9.0,78,0.00,,,0.00,,2013-01-23 01:03:00,
2013-01-22 19:13:00,0.0,-6.0,-100.00,SSW,205,7.0,12.0,78,0.00,,,0.00,,2013-01-23 01:13:00,
2013-01-22 19:22:00,0.0,-6.0,-100.00,SSW,200,7.0,9.0,79,0.00,,,0.00,,2013-01-23 01:22:00,
2013-01-22 19:33:00,0.0,-4.0,-100.00,SSW,200,7.0,9.0,80,0.00,,,0.00,,2013-01-23 01:33:00,
2013-01-22 19:43:00,0.0,-4.0,-100.00,SSW,210,9.0,11.0,80,0.00,,,0.00,,2013-01-23 01:43:00,
2013-01-22 19:52:00,0.0,-4.0,-100.00,SSW,205,8.0,11.0,80,0.00,,,0.00,,2013-01-23 01:52:00,
2013-01-22 20:03:00,0.0,-4.0,-100.00,SSW,210,9.0,10.0,81,0.00,,,0.00,,2013-01-23 02:03:00,
2013-01-22 20:12:00,1.0,-4.0,-100.00,SSW,210,9.0,11.0,81,0.00,,,0.00,,2013-01-23 02:12:00,
2013-01-22 20:23:00,1.0,-4.0,-100.00,SSW,205,9.0,9.0,81,0.00,,,0.00,,2013-01-23 02:23:00,
2013-01-22 20:33:00,1.0,-4.0,-100.00,SSW,200,7.0,9.0,81,0.00,,,0.00,,2013-01-23 02:33:00,
2013-01-22 20:42:00,1.0,-4.0,-100.00,SSW,195,7.0,9.0,81,0.00,,,0.00,,2013-01-23 02:42:00,
2013-01-22 20:53:00,1.0,-4.0,-100.00,SSW,195,7.0,9.0,81,0.00,,,0.00,,2013-01-23 02:53:00,
2013-01-22 21:03:00,1.0,-4.0,-100.00,SSW,195,6.0,8.0,81,0.00,,,0.00,,2013-01-23 03:03:00,
2013-01-22 21:12:00,1.0,-2.0,-100.00,South,175,5.0,8.0,81,0.00,,,0.00,,2013-01-23 03:12:00,
2013-01-22 21:23:00,2.0,-2.0,-100.00,South,190,5.0,7.0,81,0.00,,,0.00,,2013-01-23 03:23:00,
2013-01-22 21:33:00,2.0,-2.0,-100.00,South,185,6.0,7.0,81,0.00,,,0.00,,2013-01-23 03:33:00,
2013-01-22 21:42:00,2.0,-2.0,-100.00,South,190,6.0,7.0,81,0.00,,,0.00,,2013-01-23 03:42:00,
2013-01-22 21:52:00,2.0,-2.0,-100.00,South,190,6.0,7.0,81,0.00,,,0.00,,2013-01-23 03:52:00,
2013-01-22 22:03:00,2.0,-2.0,-100.00,South,185,6.0,8.0,81,0.00,,,0.00,,2013-01-23 04:03:00,
2013-01-22 22:12:00,2.0,-2.0,-100.00,South,185,6.0,7.0,81,0.00,,,0.00,,2013-01-23 04:12:00,
2013-01-22 22:22:00,2.0,-2.0,-100.00,South,180,6.0,7.0,81,0.00,,,0.00,,2013-01-23 04:22:00,
2013-01-22 22:32:00,2.0,-2.0,-100.00,SSW,195,6.0,7.0,81,0.00,,,0.00,,2013-01-23 04:32:00,
2013-01-22 22:43:00,2.0,-2.0,-100.00,South,190,6.0,7.0,81,0.00,,,0.00,,2013-01-23 04:43:00,
2013-01-22 22:52:00,2.0,-2.0,-100.00,South,190,7.0,7.0,81,0.00,,,0.00,,2013-01-23 04:52:00,
2013-01-22 23:03:00,2.0,-2.0,-100.00,SSW,200,6.0,7.0,81,0.00,,,0.00,,2013-01-23 05:03:00,
2013-01-22 23:12:00,3.0,-2.0,-100.00,SSW,200,7.0,8.0,81,0.00,,,0.00,,2013-01-23 05:12:00,
2013-01-22 23:22:00,3.0,-2.0,-100.00,SSW,200,6.0,9.0,82,0.00,,,0.00,,2013-01-23 05:22:00,
2013-01-22 23:33:00,3.0,-2.0,-100.00,SSW,195,6.0,6.0,82,0.00,,,0.00,,2013-01-23 05:33:00,
2013-01-22 23:43:00,3.0,0.0,-100.00,South,185,6.0,7.0,82,0.00,,,0.00,,2013-01-23 05:43:00,
2013-01-22 23:52:00,3.0,0.0,-100.00,South,190,7.0,8.0,81,0.00,,,0.00,,2013-01-23 05:52:00,